CW5586 Lerum SE current weather conditions

sailwx.info

Wind from 177 at 2 knots gusting 10

Air temperature 12.8° C
Dewpoint 11.8° C

Last reported at 2018-Oct-17 05:01 UTC.
Time now 2018-Oct-17 06:16 UTC

Location: N 57°47' E 012°15'.
View on Google Maps.

See reports from other nearby stations

  
Tides and Currents Weather Stations Pressure Air Temp Water Temp Dewpoint Dewpoint Depression Visibility Wind Speed Wind Dir Waves Ship Positions
date/time (UTC)wind fromknots sea level pressurealtimeterstation pressurevisibilityair tempwater tempwave heightnotes
2018-Oct-17 05:01 177 2 gusting 10 12.8
2018-Oct-17 04:46 171 3 gusting 7 12.8
2018-Oct-17 04:36 190 1 gusting 6 12.2
2018-Oct-17 03:46 169 2 gusting 4 12.2
2018-Oct-17 03:41 188 3 gusting 6 12.2
2018-Oct-17 03:36 172 2 gusting 10 12.2
2018-Oct-17 03:31 169 2 gusting 5 12.2
2018-Oct-17 03:16 181 2 gusting 6 12.2
2018-Oct-17 03:01 184 1 gusting 7 12.2
2018-Oct-17 02:36 219 2 gusting 5 11.7
2018-Oct-17 02:31 163 2 gusting 6 11.7
2018-Oct-17 02:16 164 1 gusting 8 11.7
2018-Oct-17 02:06 182 3 gusting 10 11.7
2018-Oct-17 01:46 183 2 gusting 7 11.7
2018-Oct-17 01:16 161 2 gusting 6 11.7
2018-Oct-17 01:01 180 2 gusting 5 11.7
2018-Oct-17 00:31 169 0 gusting 2 11.7
2018-Oct-17 00:06 196 0 gusting 4 11.7
2018-Oct-17 00:01 199 0 gusting 4 11.7
2018-Oct-16 23:31 197 0 gusting 2 11.7
2018-Oct-16 23:11 148 11.1
2018-Oct-16 23:06 156 0 gusting 2 11.1
2018-Oct-16 23:01 196 11.1
2018-Oct-16 22:46 196 1 gusting 2 11.1
2018-Oct-16 22:36 188 0 gusting 2 11.1
2018-Oct-16 22:06 196 3 gusting 7 11.1
2018-Oct-16 21:06 181 1 gusting 4 11.7
2018-Oct-16 21:01 190 2 gusting 5 11.7
2018-Oct-16 20:36 198 2 gusting 5 12.2
2018-Oct-16 19:36 216 1 gusting 6 12.2
2018-Oct-16 19:16 211 1 gusting 6 12.2
2018-Oct-16 19:06 208 1 gusting 5 12.8
2018-Oct-16 18:06 182 0 gusting 4 12.8
2018-Oct-16 18:01 183 12.8
2018-Oct-16 17:16 066 12.8
2018-Oct-16 17:06 061 12.8
2018-Oct-16 16:46 061 12.8
2018-Oct-16 16:31 061 12.8
2018-Oct-16 16:06 069 12.8
2018-Oct-16 15:41 025 13.3
2018-Oct-16 15:31 025 13.3
2018-Oct-16 15:11 025 13.3
2018-Oct-16 15:06 038 13.3
2018-Oct-16 14:31 041 13.3
2018-Oct-16 14:16 059 0 gusting 2 13.9
2018-Oct-16 13:36 026 2 gusting 2 13.9
2018-Oct-16 13:16 021 1 gusting 2 13.9
2018-Oct-16 13:06 355 1 gusting 2 13.9
2018-Oct-16 12:41 355 13.9
2018-Oct-16 12:36 355 13.9
2018-Oct-16 12:11 350 1 gusting 2 13.9
2018-Oct-16 12:06 354 2 gusting 4 13.9
2018-Oct-16 12:01 354 1 gusting 2 13.9
2018-Oct-16 11:46 023 1 gusting 2 13.9
2018-Oct-16 11:36 026 1 gusting 4 13.9
2018-Oct-16 10:41 041 12.8
2018-Oct-16 10:16 001 1 gusting 2 12.2
2018-Oct-16 10:11 023 1 gusting 4 12.2
2018-Oct-16 10:01 020 2 gusting 4 12.2
2018-Oct-16 09:16 030 1 gusting 2 10.6
2018-Oct-16 09:11 012 2 gusting 4 10.6
2018-Oct-16 09:06 022 2 gusting 5 10.6
2018-Oct-16 08:41 040 0 gusting 2 10.6
2018-Oct-16 08:36 036 1 gusting 2 10.6
2018-Oct-16 08:31 025 1 gusting 2 10.0
2018-Oct-16 08:16 343 1 gusting 2 10.0
2018-Oct-16 08:06 352 2 gusting 4 10.0
2018-Oct-16 07:11 024 1 gusting 2 10.6
2018-Oct-16 07:01 009 1 gusting 2 10.6
2018-Oct-16 06:36 028 1 gusting 2 10.6
2018-Oct-16 06:31 033 1 gusting 2 10.6
2018-Oct-16 06:01 028 0 gusting 2 10.6
2018-Oct-16 05:36 028 10.0
2018-Oct-16 05:11 036 10.0
2018-Oct-16 05:06 036 10.0
2018-Oct-16 05:01 036 10.0
2018-Oct-16 04:06 046 9.4
2018-Oct-16 03:31 061 10.0
2018-Oct-16 03:11 061 10.0
2018-Oct-16 03:06 061 10.0
2018-Oct-16 02:36 354 1 gusting 2 10.0
2018-Oct-16 02:16 005 10.0
2018-Oct-16 02:11 005 10.0
2018-Oct-16 02:06 005 10.0
2018-Oct-16 01:41 347 0 gusting 2 10.0
2018-Oct-16 01:31 304 10.0
2018-Oct-16 01:06 326 2 gusting 4 10.0
2018-Oct-16 01:01 305 0 gusting 4 10.0
2018-Oct-16 00:36 070 10.0
2018-Oct-16 00:16 070 10.0
2018-Oct-16 00:11 070 10.0
2018-Oct-16 00:01 070 10.0
2018-Oct-15 23:46 070 10.0
2018-Oct-15 23:16 070 10.0
2018-Oct-15 23:06 070 10.0
2018-Oct-15 23:01 070 10.0
2018-Oct-15 22:41 070 10.0
2018-Oct-15 22:31 061 1 gusting 4 10.6
2018-Oct-15 22:16 097 10.6
2018-Oct-15 22:11 097 10.6
2018-Oct-15 21:46 098 10.6
2018-Oct-15 21:16 098 10.6
2018-Oct-15 21:11 098 10.6
2018-Oct-15 20:46 189 10.6
2018-Oct-15 20:41 189 10.6
2018-Oct-15 20:36 189 10.6
2018-Oct-15 20:11 189 0 gusting 1 10.0
2018-Oct-15 19:46 199 10.0
2018-Oct-15 19:31 199 10.0
2018-Oct-15 19:16 196 10.0
2018-Oct-15 18:41 196 10.0
2018-Oct-15 18:31 194 10.0
2018-Oct-15 18:11 194 10.6
2018-Oct-15 17:41 194 11.7
2018-Oct-15 17:36 194 11.7
2018-Oct-15 17:11 178 0 gusting 2 12.2
2018-Oct-15 16:36 171 1 gusting 4 12.8
2018-Oct-15 16:31 173 2 gusting 7 12.8
2018-Oct-15 15:46 173 2 gusting 5 14.4
2018-Oct-15 15:41 191 4 gusting 6 14.4
2018-Oct-15 15:36 166 3 gusting 10 14.4
2018-Oct-15 15:31 173 2 gusting 6 15.0
2018-Oct-15 15:11 183 1 gusting 4 15.6
2018-Oct-15 15:01 209 2 gusting 6 15.6
2018-Oct-15 14:46 196 2 gusting 5 16.7
2018-Oct-15 14:31 195 2 gusting 8 16.7
2018-Oct-15 14:11 203 2 gusting 10 17.2
2018-Oct-15 13:36 221 4 gusting 8 17.8
2018-Oct-15 13:11 186 5 gusting 10 17.8
2018-Oct-15 13:06 193 2 gusting 10 18.3
2018-Oct-15 12:36 184 5 gusting 11 18.3
2018-Oct-15 12:16 210 5 gusting 11 18.3
2018-Oct-15 12:06 214 5 gusting 8 18.3
2018-Oct-15 12:01 196 4 gusting 6 18.3
2018-Oct-15 11:36 193 1 gusting 6 18.3
2018-Oct-15 11:16 195 2 gusting 6 17.8
2018-Oct-15 11:11 221 4 gusting 8 17.8
2018-Oct-15 11:06 183 4 gusting 7 17.8
2018-Oct-15 09:46 184 4 gusting 6 16.1
2018-Oct-15 09:41 179 2 gusting 7 16.1
2018-Oct-15 09:36 203 4 gusting 11 16.1
2018-Oct-15 09:16 183 2 gusting 10 15.6
2018-Oct-15 09:06 193 3 gusting 6 15.6
2018-Oct-15 09:01 174 3 gusting 7 15.6
2018-Oct-15 08:46 200 2 gusting 4 15.0
2018-Oct-15 08:41 178 1 gusting 6 15.0
2018-Oct-15 08:36 174 1 gusting 4 15.0
2018-Oct-15 08:31 166 2 gusting 5 14.4
2018-Oct-15 07:46 144 2 gusting 4 13.3
2018-Oct-15 07:41 160 1 gusting 2 13.3
2018-Oct-15 07:16 155 0 gusting 2 12.2
2018-Oct-15 07:06 147 1 gusting 2 12.2
2018-Oct-15 07:01 150 1 gusting 2 12.2
2018-Oct-15 06:46 131 2 gusting 5 11.7
2018-Oct-15 06:41 128 1 gusting 2 11.7
2018-Oct-15 06:01 152 0 gusting 5 11.1